Location: Casilda
(33.0440°S, 61.1680°W)
Time: 18:12:57
(UTC-03:00)

ISS - Pass Details

Date: 29 November 2020
Orbit: 418 x 420 km, 51.6° (Epoch: 04 December)

Event Time Altitude Azimuth Distance (km) Brightness Sun altitude
Exits shadow 04:49:23 - 252° (WSW) 1,789 -0.9 -11.5°
Reaches altitude 10° 04:50:33 10° 237° (WSW) 1,523 -1.1 -11.3°
Maximum altitude 04:52:08 13° 209° (SSW) 1,373 -1.1 -11.1°
Drops below altitude 10° 04:53:44 10° 181° (S) 1,530 -0.4 -10.8°
Sets 04:56:52 0° 151° (SSE) 2,402 1.4 -10.3°
